Home   Weather   Niterói   Past weeks

Flag for Brazil Past Weather in Niterói, Rio de Janeiro, Brazil — Yesterday and Last 2 Weeks

Now
75 °F

More clouds than sun.


Feels Like: 77 °F
Forecast: N/A
Wind: 10 mph from South

Location: Rio De Janeiro Airport

Current Time: Sep 24, 2016 at 6:00:11 PM

Latest Report: Sep 24, 2016 at 5:00 PM


Visibility: N/A

Pressure: 30.01 "Hg

Humidity: 74%

Dew Point: 66 °F

Location of NiteróiLocation

Past Weather in Niterói — Graph

°F

Niterói Temperature Yesterday

Maximum temperature yesterday: 81 °F (at 1:00 PM)
Minimum temperature yesterday: 68 °F (at 6:00 AM)
Average temperature yesterday: 74 °F

High & Low Weather Summary for the Past Weeks

 TemperatureHumidityPressure
High95 °F (Sep 13, 3:00 PM)94% (Sep 18, 4:00 AM)30.27 "Hg (Sep 18, 4:00 AM)
Low66 °F (Sep 20, 4:00 PM)36% (Sep 13, 12:00 PM)29.77 "Hg (Sep 13, 3:00 PM)
Average75 °F74%30.03 "Hg
* Reported Sep 9 5:00 PM — Sep 24 5:00 PM, Niterói, Weather by CustomWeather, © 2016

Note: Actual official high and low records may vary slightly from our data, if they occured in-between our weather recording intervals... More about our weather records

Advertising

Niterói Weather History for the Previous 24 Hours

Scroll right to see more
 ConditionsComfort  
Time TempWeatherWind HumidityBarometerVisibility
5:00 PM
Sat, Sep 24
75 °FMore clouds than sun.10 mph74%30.01 "HgN/A
4:00 PM75 °FMore clouds than sun.12 mph74%29.98 "HgN/A
3:00 PM77 °FBroken clouds.12 mph65%29.98 "HgN/A
2:00 PM79 °FPartly sunny.12 mph61%29.98 "HgN/A
1:00 PM81 °FPartly sunny.13 mph54%30.01 "HgN/A
12:00 PM81 °FScattered clouds.6 mph66%30.04 "HgN/A
11:00 AM81 °FScattered clouds.7 mph66%30.04 "HgN/A
10:00 AM77 °FScattered clouds.3 mph69%30.07 "HgN/A
9:00 AM75 °FScattered clouds.6 mph78%30.07 "HgN/A
8:00 AM73 °FPassing clouds.8 mph78%30.07 "HgN/A
7:00 AM72 °FScattered clouds.5 mph83%30.07 "HgN/A
6:00 AM70 °FPassing clouds.2 mph88%30.04 "HgN/A
5:00 AM70 °FClear.5 mph83%30.01 "Hg10 mi
4:00 AM70 °FClear.9 mph83%30.01 "Hg10 mi
3:00 AM68 °FClear.2 mph83%30.01 "Hg10 mi
2:00 AM70 °FClear.5 mph78%30.01 "Hg10 mi
1:00 AM70 °FClear.5 mph78%30.01 "Hg10 mi
12:00 AM70 °FClear.6 mph73%30.04 "Hg10 mi
11:00 PM
Fri, Sep 23
70 °FClear.7 mph78%30.04 "Hg10 mi
10:00 PM72 °FClear.3 mph73%30.04 "Hg10 mi
9:00 PM73 °FClear.5 mph69%30.04 "Hg10 mi
8:00 PM73 °FClear.3 mph69%30.01 "Hg10 mi
7:00 PM72 °FClear.6 mph78%30.01 "Hg10 mi
6:00 PM73 °FClear.13 mph78%30.01 "Hg10 mi
Weather by CustomWeather, © 2016

See weather overviewHow to use our weather pages